This is the latest recevied weather packets stored in our database for station/object IU1FIL-23. If no packets are shown the sender has not sent any weather packets the latest 10 day(s).
| Time | Temp. | Humidity | Pressure | Rain* | Wind** | Luminosity | Snow |
|---|---|---|---|---|---|---|---|
| 1777659867 | 12.78° C | 33% | 1026.3 hPa | - | - | - | - |
| 1777659263 | 13.33° C | 32% | 1026 hPa | - | - | - | - |
| 1777658659 | 13.89° C | 31% | 1026 hPa | - | - | - | - |
| 1777658055 | 15° C | 31% | 1026 hPa | - | - | - | - |
| 1777657451 | 15.56° C | 31% | 1025.9 hPa | - | - | - | - |
| 1777656846 | 16.11° C | 31% | 1025.9 hPa | - | - | - | - |
| 1777656242 | 16.11° C | 31% | 1025.9 hPa | - | - | - | - |
| 1777655638 | 16.11° C | 31% | 1025.9 hPa | - | - | - | - |
| 1777655034 | 17.22° C | 30% | 1025.9 hPa | - | - | - | - |
| 1777654430 | 18.33° C | 29% | 1025.7 hPa | - | - | - | - |
| 1777653826 | 19.44° C | 28% | 1025.7 hPa | - | - | - | - |
| 1777653221 | 20° C | 27% | 1025.7 hPa | - | - | - | - |
| 1777652617 | 21.67° C | 26% | 1025.8 hPa | - | - | - | - |
| 1777652010 | 21.67° C | 25% | 1025.8 hPa | - | - | - | - |
| 1777651406 | 22.78° C | 24% | 1025.8 hPa | - | - | - | - |
| 1777650796 | 23.33° C | 24% | 1025.9 hPa | - | - | - | - |
| 1777650183 | 22.78° C | 24% | 1025.9 hPa | - | - | - | - |
| 1777649578 | 25° C | 23% | 1025.9 hPa | - | - | - | - |
| 1777648974 | 25° C | 23% | 1025.9 hPa | - | - | - | - |
| 1777648370 | 25° C | 23% | 1025.9 hPa | - | - | - | - |
| 1777647766 | 25.56° C | 24% | 1025.9 hPa | - | - | - | - |
| 1777647162 | 26.11° C | 24% | 1025.9 hPa | - | - | - | - |
| 1777646557 | 26.11° C | 23% | 1025.9 hPa | - | - | - | - |
| 1777645952 | 27.22° C | 23% | 1025.9 hPa | - | - | - | - |
| 1777645348 | 27.78° C | 24% | 1025.9 hPa | - | - | - | - |
* Rain since midnight (hover to see other rain measurements)
** Current wind speed in m/s (hover to see current wind gust speed)